This is the latest recevied weather packets stored in our database for station/object N1YZ. If no packets are shown the sender has not sent any weather packets the latest 10 day(s).
| Time | Temp. | Humidity | Pressure | Rain* | Wind** | Luminosity | Snow |
|---|---|---|---|---|---|---|---|
| 1777828907 | 20° C | 42% | 1041 hPa | 0 mm | - | 698 W/m² | - |
| 1777828603 | 20.56° C | 41% | 1041.2 hPa | 0 mm | - | 695 W/m² | - |
| 1777828301 | 20.56° C | 38% | 1040.9 hPa | 0 mm | - | 695 W/m² | - |
| 1777827997 | 20.56° C | 36% | 1041.2 hPa | 0 mm | - | 690 W/m² | - |
| 1777827695 | 20.56° C | 40% | 1041.3 hPa | 0 mm | - | 686 W/m² | - |
| 1777827391 | 20° C | 38% | 1041.4 hPa | 0 mm | - | 683 W/m² | - |
| 1777827087 | 20° C | 41% | 1041.3 hPa | 0 mm | - | 677 W/m² | - |
| 1777826784 | 20° C | 44% | 1041.5 hPa | 0 mm | - | 671 W/m² | - |
| 1777826481 | 20° C | 42% | 1041.3 hPa | 0 mm | - | 666 W/m² | - |
| 1777826178 | 19.44° C | 45% | 1041.4 hPa | 0 mm | - | 660 W/m² | - |
| 1777825875 | 19.44° C | 40% | 1041.5 hPa | 0 mm | - | 652 W/m² | - |
| 1777825572 | 19.44° C | 43% | 1041.5 hPa | 0 mm | - | 644 W/m² | - |
| 1777825270 | 18.89° C | 42% | 1041.5 hPa | 0 mm | - | 641 W/m² | - |
| 1777824967 | 18.33° C | 50% | 1041.7 hPa | 0 mm | - | 632 W/m² | - |
| 1777824662 | 17.78° C | 46% | 1041.7 hPa | 0 mm | - | 577 W/m² | - |
| 1777824360 | 17.78° C | 47% | 1041.7 hPa | 0 mm | - | 213 W/m² | - |
| 1777824055 | 17.78° C | 49% | 1041.9 hPa | 0 mm | - | 50 W/m² | - |
| 1777823752 | 17.78° C | 49% | 1041.7 hPa | 0 mm | - | 44 W/m² | - |
| 1777823449 | 17.78° C | 52% | 1041.8 hPa | 0 mm | - | 45 W/m² | - |
| 1777823147 | 17.22° C | 48% | 1041.7 hPa | 0 mm | - | 72 W/m² | - |
| 1777822844 | 17.22° C | 45% | 1041.9 hPa | 0 mm | - | 120 W/m² | - |
| 1777822542 | 17.22° C | 50% | 1041.9 hPa | 0 mm | - | 38 W/m² | - |
| 1777822239 | 17.78° C | 55% | 1041.7 hPa | 0 mm | - | 191 W/m² | - |
| 1777821937 | 17.22° C | 49% | 1041.8 hPa | 0 mm | - | 147 W/m² | - |
| 1777821635 | 17.78° C | 52% | 1041.9 hPa | 0 mm | - | 258 W/m² | - |
* Rain latest hour (hover to see other rain measurements)
** Current wind speed in m/s (hover to see current wind gust speed)